Miscellaneous Local Product
Issued by NWS North Platte, NE

Home | Current Version | Previous Version | Text Only | Print | Product List | Glossary On
Versions: 1 2 3 4 5 6 7 8 9 10 11 12 13 14 15 16 17 18 19 20 21 22 23 24 25 26 27 28 29 30 31 32 33 34 35 36 37 38 39 40 41 42 43 44 45 46 47 48 49 50
106
AXUS43 KLBF 260010
MISLBF


WESTERN AND NORTH CENTRAL NEBRASKA HOURLY WEATHER ROUNDUP
NATIONAL WEATHER SERVICE NORTH PLATTE NE
700 PM CDT SAT MAR 25 2017

NOTE: "FAIR" INDICATES FEW OR NO CLOUDS BELOW 12,000 FEET WITH NO
SIGNIFICANT WEATHER AND/OR OBSTRUCTIONS TO VISIBILITY.

NOTE: STATIONS NOT REPORTING VARIABLES SUCH AS SKY/WEATHER OR
PRESSURE ARE PROVIDED BY RAWS AND APRS NETWORKS AND ARE NOT UNDER
NATIONAL WEATHER SERVICE QUALITY CONTROL.

...OBSERVATIONS IN AND NEAR THE EASTERN PANHANDLE OF NEBRASKA...

CITY           SKY/WX    TMP DP  RH WIND       PRES   REMARKS
PINE RIDGE     CLOUDY    66  34  30 S7        29.80S
CHADRON        MOSUNNY   65  32  29 E5        29.79S
ALLIANCE       CLOUDY    60  31  33 SE10      29.83S
SIDNEY         CLOUDY    57  32  38 S8        29.87S
$$

...OBSERVATIONS IN NORTHERN NEBRASKA AND FAR SOUTHERN SOUTH DAKOTA...

CITY           SKY/WX    TMP DP  RH WIND       PRES   REMARKS
WINNER         FAIR      54  37  52 SE20      29.90S
VALENTINE      SUNNY     58  27  30 SE12      29.86F
THEDFORD       SUNNY     61  28  28 E7        29.88R
AINSWORTH      CLEAR     53  39  59 E9        29.90R
O`NEILL        CLOUDY    40  38  95 E8        29.95S FOG     WCI  34
ORD            CLOUDY    42  37  82 E8        29.92S
BROKEN BOW     PTCLDY    47  41  80 E9        29.90S
VALENTINE NWR    N/A     63  16  16 S5          N/A
HALSEY           N/A     61  29  30 E6          N/A
BUTTE            N/A     42  37  83 E12         N/A
CHAMBERS         N/A     40  37  90 E3          N/A
EWING            N/A     38  37  97 NE5         N/A  WCI  34
$$

...OBSERVATIONS IN SOUTHWEST NEBRASKA AND FAR NORTHEAST COLORADO...

CITY           SKY/WX    TMP DP  RH WIND       PRES   REMARKS
WRAY           FAIR      61  25  25 S6        29.89S
HOLYOKE        FAIR      59  32  36 SE6       29.88F
IMPERIAL       CLOUDY    58  28  32 S5        29.88S
OGALLALA       CLOUDY    61  24  24 S3        29.88S
NORTH PLATTE   SUNNY     60  28  29 SE8       29.87R
MCCOOK         SUNNY     57  43  59 E13       29.87R
LEXINGTON      CLOUDY    47  41  79 E10       29.91S
STAPLETON        N/A     59  31  35 CALM        N/A
GOTHENBURG       N/A     57  39  52 E12         N/A
CALLAWAY         N/A     56  44  63 E9          N/A
$$

...OBSERVATIONS IN CENTRAL LINCOLN COUNTY AREA...

CITY           SKY/WX    TMP DP  RH WIND       PRES   REMARKS
N.P. AIRPORT   SUNNY     60  28  29 SE8       29.87R
N.P. DOWNTOWN    N/A     61  27  27 CALM        N/A
N.P. SOUTHEAST   N/A     61  26  26 CALM        N/A
N.P. HILLCREST   N/A     60  25  26 E5          N/A
$$

...SOME OBSERVATIONS FROM AROUND THE REGION...

CITY           SKY/WX    TMP DP  RH WIND       PRES   REMARKS
DENVER         CLOUDY    56  30  37 SE14      29.84F
LIMON          CLOUDY    52  27  38 SE13      29.89S
ASPEN          CLOUDY    55  19  24 NW13G26   29.84F
LARAMIE        CLOUDY    51  22  31 S22       29.86S
CASPER         CLOUDY    55  30  38 N5        29.84S
CHEYENNE       CLOUDY    54  19  25 S14       29.87F
SCOTTSBLUFF    CLOUDY    65  31  28 SE10      29.80F
GRAND ISLAND   CLOUDY    40  40 100 NE8       29.94S FOG     WCI  34
OMAHA          CLOUDY    43  37  79 N10       29.94R
SIOUX FALLS    CLOUDY    41  38  89 E12       29.99F
PIERRE         MOCLDY    52  32  46 E16       29.89S
RAPID CITY     CLOUDY    59  33  37 NW13      29.81S
BISMARCK       PTCLDY    53  31  42 S8        29.91F
KANSAS CITY    CLOUDY    48  46  93 N10       29.86R
HILL CITY      SUNNY     52  42  69 E10       29.91S
WICHITA        CLOUDY    46  41  82 N10       29.92R
DODGE CITY     SUNNY     62  39  42 NE12      29.87F
OKLAHOMA CITY  PTCLDY    60  43  53 N3        29.91S
DALLAS         PTCLDY    73  44  35 NW9       29.89F
AMARILLO       SUNNY     68  30  24 S6        29.90F
$$




USA.gov is the U.S. government's official web portal to all federal, state and local government web resources and services.